UNISAT-6

Last updated on Wed Sep 09 2026 00:03:15 GMT+0000 (Coordinated Universal Time)

1 40012U 14033C 26251.35994990 .00002823 00000+0 30343-3 0 9992 2 40012 97.7985 42.6834 0045343 152.6896 207.6719 14.88595785658536
UTC large
Height (km)
Speed (km/s)
/
Latitude / Longitude
Inclination (degrees)
Orbital Period (minutes)
Azimuth
Elevation
Range (km)
Doppler Factor

Next 0 passes for location: London (51.5072 / 0.1276)

No passes found over London.
UNISAT-6